Weather History for Lihue, HI

Change the Weather History Date:

Friday, November 16, 2012

  Actual Average Record
Temperature  
Mean Temperature 77 °F 76 °F  
Max Temperature 82 °F 81 °F 84 °F (1957)
Min Temperature 71 °F 71 °F 63 °F (1989)
Degree Days  
Heating Degree Days 0 0  
Month to date heating degree days 0 0  
Since 1 July heating degree days 0 0  
Cooling Degree Days 12 11  
Month to date cooling degree days 204 183  
Year to date cooling degree days 3691 3550  
Growing Degree Days 26 (Base 50)    
Moisture  
Dew Point 63 °F    
Average Humidity 64    
Maximum Humidity 73    
Minimum Humidity 54    
Precipitation  
Precipitation 0.03 in 0.16 in 2.29 in (1996)
Month to date precipitation 0.42 2.43  
Year to date precipitation 36.65 29.82  
Snow  
Snow 0.00 in - - ()
Month to date snowfall 0.0  
Since 1 July snowfall 0.0  
Since 1 September snowfall 0.0  
Snow Depth 0.00 in    
Sea Level Pressure  
Sea Level Pressure 30.11 in    
Wind  
Wind Speed 18 mph (ENE)    
Max Wind Speed 25 mph    
Max Gust Speed 31 mph    
Visibility 10 miles    
Events Rain    
T = Trace of Precipitation, MM = Missing Value Source: NWS Daily Summary

Daily Weather History Graph

Daily Weather History Graph

Search for Another Location

Airport:

Trip Planner

Search our weather history database for the weather conditions in past years. The results will help you decide how hot, cold, wet, or windy it might be!

Date:

Astronomy

Nov. 16, 2012 Rise Set
Actual Time 6:50 AM HST 5:54 PM HST
Civil Twilight 6:26 AM HST 6:17 PM HST
Nautical Twilight 5:59 AM HST 6:44 PM HST
Astronomical Twilight 5:32 AM HST 7:11 PM HST
Moon 9:50 AM HST (11/16) 9:10 PM HST (11/16)
Length of Visible Light 11h 51m
Length of Day
11h 03m
Waxing Crescent, 13% of the Moon is Illuminated
Nov 16
Waxing Crescent
Nov 20
First Quarter
Nov 28
Full
Dec 6
Last Quarter
Dec 12
New

Hourly Weather History & Observations

Time (HST) Temp. Heat Index Dew Point Humidity Pressure Visibility Wind Dir Wind Speed Gust Speed Precip Events Conditions
12:53 AM 75.0 °F - 63.0 °F 66% 30.12 in 10.0 mi ENE 16.1 mph - 0.00 in   Mostly Cloudy
1:53 AM 73.9 °F - 64.9 °F 73% 30.11 in 10.0 mi NNE 16.1 mph - 0.00 in   Overcast
2:41 AM 73.4 °F - 64.4 °F 73% 30.10 in 10.0 mi ENE 15.0 mph 19.6 mph N/A   Mostly Cloudy
2:53 AM 75.0 °F - 64.0 °F 69% 30.10 in 10.0 mi ENE 13.8 mph - N/A   Overcast
3:06 AM 75.2 °F - 62.6 °F 65% 30.10 in 10.0 mi ENE 13.8 mph - N/A   Mostly Cloudy
3:53 AM 75.0 °F - 64.0 °F 69% 30.09 in 10.0 mi ENE 17.3 mph - N/A   Mostly Cloudy
4:53 AM 73.9 °F - 64.0 °F 71% 30.08 in 10.0 mi ENE 16.1 mph - N/A   Scattered Clouds
5:53 AM 75.0 °F - 63.0 °F 66% 30.09 in 10.0 mi ENE 18.4 mph - N/A   Mostly Cloudy
6:53 AM 75.0 °F - 62.1 °F 64% 30.10 in 10.0 mi ENE 18.4 mph - N/A   Partly Cloudy
7:53 AM 75.9 °F - 63.0 °F 64% 30.12 in 10.0 mi ENE 17.3 mph - N/A   Mostly Cloudy
8:53 AM 78.1 °F - 64.0 °F 62% 30.14 in 10.0 mi ENE 18.4 mph - N/A   Partly Cloudy
9:53 AM 78.1 °F - 64.9 °F 64% 30.15 in 10.0 mi NNE 13.8 mph - N/A   Overcast
10:53 AM 78.1 °F - 66.0 °F 66% 30.15 in 10.0 mi ENE 19.6 mph - 0.03 in   Mostly Cloudy
11:53 AM 79.0 °F - 64.0 °F 60% 30.13 in 10.0 mi East 18.4 mph 24.2 mph N/A   Scattered Clouds
12:53 PM 80.1 °F 81.5 °F 63.0 °F 56% 30.10 in 10.0 mi East 19.6 mph - N/A   Mostly Cloudy
1:53 PM 80.1 °F 81.2 °F 62.1 °F 54% 30.08 in 10.0 mi ENE 17.3 mph - N/A   Partly Cloudy
2:53 PM 81.0 °F 81.9 °F 62.1 °F 52% 30.07 in 10.0 mi ENE 16.1 mph - N/A   Scattered Clouds
3:53 PM 79.0 °F - 63.0 °F 58% 30.07 in 10.0 mi NE 18.4 mph - N/A   Partly Cloudy
4:53 PM 77.0 °F - 63.0 °F 62% 30.08 in 10.0 mi NE 17.3 mph - N/A   Scattered Clouds
5:53 PM 75.9 °F - 61.0 °F 60% 30.09 in 10.0 mi NE 17.3 mph - N/A   Partly Cloudy
6:53 PM 75.9 °F - 61.0 °F 60% 30.10 in 10.0 mi NE 18.4 mph - N/A   Partly Cloudy
7:53 PM 75.0 °F - 64.0 °F 69% 30.11 in 10.0 mi NE 18.4 mph - 0.00 in Rain Light Rain
8:53 PM 75.9 °F - 63.0 °F 64% 30.12 in 10.0 mi NE 19.6 mph - 0.00 in   Mostly Cloudy
9:53 PM 75.9 °F - 64.9 °F 69% 30.12 in 10.0 mi ENE 21.9 mph 26.5 mph N/A   Partly Cloudy
10:53 PM 75.9 °F - 61.0 °F 60% 30.12 in 10.0 mi ENE 18.4 mph 24.2 mph N/A   Overcast
11:53 PM 75.0 °F - 61.0 °F 62% 30.11 in 10.0 mi ENE 16.1 mph - N/A   Mostly Cloudy